Terminal Aerodrome Forecast
Issued by NWS

Home | Current Version | Previous Version | Text Only | Print | Product List | Glossary On
Versions: 1 2 3 4 5 6 7 8 9 10 11 12 13 14 15 16 17 18
000
FTUS42 KFFC 300154 AAA
TAFFTY
TAF AMD
KFTY 300154Z 3002/3024 21005KT P6SM BKN050
     FM300500 32015G25KT P6SM OVC025
     FM300700 32012KT P6SM BKN020
     FM301200 32014KT P6SM SCT040
     FM301500 32014G24KT P6SM SCT150=

USA.gov is the U.S. government's official web portal to all federal, state and local government web resources and services.